[[{"header":{"parameterUnit":"m.s-1","parameterCategory":2,"la1":30.2991,"la2":30.254,"lo1":-89.0895,"lo2":-89.0444,"dy":0.0017,"dx":0.0017,"nx":28,"ny":28,"refTime":"2026-02-24T09:00:00:Z","depth":"0","parameterNumber":2,"parameterNumberName":"U-component_of_CURRENTS"},"data":[0,0,0,0,0,0,0,0,0,0,0,0,0,0,0,0,0,0,0,0,0,0,0,0,0,0,0,0,0,0,0,0,0,0,0,0,0,0,0,0,0,0,0,0,0,0,0,0,0,0,0,0,0,0,0,0,0,0,-0.2144,-0.2144,0,-0.2171,-0.2171,-0.2171,-0.2139,-0.2138,-0.2137,-0.2136,-0.2107,-0.2107,-0.2107,0,0,0,0,0,0,0,0,0,0,0,0,0,-0.2087,-0.2088,-0.2144,-0.2144,-0.2145,-0.2171,-0.2171,-0.2171,-0.2139,-0.2138,-0.2136,-0.2135,-0.2107,-0.2107,-0.2107,0,0,0,0,0,0,0,0,0,0,0,0,0,-0.2111,-0.2089,-0.2143,-0.2133,-0.2132,-0.2171,-0.2171,-0.2171,-0.2139,-0.2138,-0.2136,-0.2134,-0.2107,-0.2107,-0.2107,-0.2141,0,0,-0.2108,-0.2108,0,0,0,0,0,0,0,0,-0.211,-0.2113,-0.2134,-0.2134,-0.2133,-0.2151,-0.2141,-0.2159,-0.214,-0.2135,-0.2136,-0.2134,-0.2119,-0.2118,-0.2125,-0.2139,-0.2138,-0.2108,-0.2108,-0.2108,-0.2109,0,0,0,0,0,0,0,-0.2108,-0.2112,-0.2153,-0.2135,-0.2134,-0.2135,-0.2136,-0.2144,-0.2133,-0.2135,-0.2133,-0.2139,-0.2118,-0.2125,-0.2124,-0.2138,-0.2108,-0.2108,-0.2109,-0.2109,-0.218,-0.2181,0,0,0,0,0,0,-0.2109,-0.2111,-0.2152,-0.2154,-0.2119,-0.2137,-0.2139,-0.2146,-0.2134,-0.2132,-0.2141,-0.2138,-0.2125,-0.2124,-0.2123,-0.2158,-0.2108,-0.2109,-0.2109,-0.2178,-0.218,-0.2182,0,0,0,0,0,0,-0.2108,-0.2113,-0.2151,-0.2134,-0.2139,-0.214,-0.2148,-0.2147,-0.2146,-0.2139,-0.2135,-0.214,-0.2124,-0.2122,-0.2134,-0.2156,-0.2109,-0.2109,-0.2176,-0.2179,-0.2181,-0.2231,0,0,0,0,0,0,-0.2106,-0.2112,-0.2115,-0.2134,-0.214,-0.2173,-0.215,-0.2149,-0.2154,-0.215,-0.2138,-0.2134,-0.2122,-0.2134,-0.2134,-0.2156,-0.2109,-0.2174,-0.2177,-0.218,-0.2227,-0.2235,-0.2241,0,0,0,0,0,-0.2104,-0.2116,-0.2115,-0.2119,-0.2144,-0.2174,-0.2178,-0.2172,-0.2155,-0.2163,-0.2157,-0.2134,-0.2154,-0.2136,-0.2136,-0.2158,-0.2172,-0.2176,-0.218,-0.2224,-0.2233,-0.2241,0,0,0,0,0,0,-0.2092,-0.2115,-0.2113,-0.213,-0.215,-0.2169,-0.2175,-0.2175,-0.2178,-0.2169,-0.2155,-0.2152,-0.2172,-0.2164,-0.2143,-0.219,-0.216,-0.2164,-0.2194,-0.2202,-0.2209,-0.2202,-0.211,0,0,0,0,0,-0.2093,-0.2103,-0.213,-0.2141,-0.2153,-0.2164,-0.2174,-0.2175,-0.2183,-0.2182,-0.2177,-0.2177,-0.2193,-0.2194,-0.2202,-0.2227,-0.2193,-0.2243,-0.225,-0.2256,-0.2253,-0.2235,-0.2239,-0.2194,-0.2194,-0.2194,0,0,-0.209,-0.2104,-0.2109,-0.2139,-0.215,-0.2181,-0.2165,-0.2184,-0.2207,-0.218,-0.22,-0.2201,-0.2206,-0.2234,-0.2243,-0.2226,-0.225,-0.2261,-0.2266,-0.2259,-0.2239,-0.2243,-0.2246,-0.2197,-0.2196,-0.2196,0,0,-0.2098,-0.2105,-0.212,-0.2144,-0.217,-0.2186,-0.2192,-0.2215,-0.222,-0.2249,-0.2239,-0.2252,-0.227,-0.228,-0.2288,-0.2342,-0.229,-0.2347,-0.2374,-0.2358,-0.236,-0.2362,-0.2311,-0.2308,-0.2349,-0.2349,-0.2349,0,-0.2093,-0.2117,-0.2129,-0.2159,-0.218,-0.219,-0.2221,-0.2241,-0.2263,-0.2273,-0.2258,-0.2293,-0.2294,-0.2333,-0.2354,-0.2356,-0.2323,-0.2339,-0.2364,-0.2366,-0.2367,-0.2314,-0.231,-0.2352,-0.2352,-0.2351,-0.2351,0,-0.2117,-0.214,-0.2154,-0.2193,-0.2221,-0.2246,-0.2283,-0.2303,-0.2309,-0.2324,-0.2354,-0.2359,-0.2375,-0.2388,-0.2387,-0.2411,-0.2375,-0.2374,-0.2336,-0.2374,-0.2316,-0.2311,-0.2356,-0.2355,-0.2354,-0.2353,0,0,-0.2094,-0.2157,-0.216,-0.2189,-0.224,-0.2268,-0.2313,-0.2357,-0.2386,-0.2397,-0.2422,-0.2456,-0.2444,-0.2453,-0.2452,-0.2443,-0.2424,-0.2414,-0.2411,-0.235,-0.2354,-0.2224,-0.2205,-0.2422,-0.2422,-0.2422,-0.2304,0,-0.2105,-0.216,-0.2192,-0.225,-0.2283,-0.2321,-0.2368,-0.2408,-0.2433,-0.246,-0.2462,-0.2489,-0.2475,-0.2484,-0.2472,-0.2443,-0.2415,-0.2453,-0.2337,-0.2333,-0.2203,-0.2198,-0.2104,-0.1982,-0.2299,-0.2298,-0.2297,0,-0.2113,-0.2151,-0.2205,-0.2285,-0.2304,-0.2344,-0.2414,-0.2459,-0.2504,-0.2519,-0.2533,-0.2533,-0.2533,-0.2512,-0.2452,-0.2473,-0.2416,-0.238,-0.2375,-0.223,-0.2194,-0.2,-0.196,-0.1941,-0.2289,-0.229,-0.229,0,-0.2081,-0.216,-0.2201,-0.2227,-0.2319,-0.2353,-0.2402,-0.2468,-0.251,-0.2551,-0.2562,-0.2565,-0.2542,-0.2499,-0.241,-0.2438,-0.2309,-0.234,-0.2161,-0.215,-0.2034,-0.2013,-0.1949,-0.2283,-0.2283,-0.2284,-0.2284,0,-0.2078,-0.2112,-0.2191,-0.2217,-0.2282,-0.2345,-0.2418,-0.2466,-0.2527,-0.2545,-0.258,-0.2558,-0.2535,-0.2459,-0.2401,-0.2232,-0.2292,-0.2147,-0.211,-0.2047,-0.2029,-0.1977,-0.2013,-0.2279,-0.228,-0.2281,-0.2282,0,-0.2033,-0.2086,-0.214,-0.2233,-0.2269,-0.2312,-0.2428,-0.2474,-0.2529,-0.2545,-0.2553,-0.2541,-0.2423,-0.2364,-0.2258,-0.2185,-0.2019,-0.1996,-0.1898,-0.1852,-0.1684,-0.1726,-0.1622,-0.1576,-0.1802,-0.1798,-0.1794,0,-0.2012,-0.2031,-0.2133,-0.2174,-0.2218,-0.2301,-0.2359,-0.2459,-0.2484,-0.2501,-0.2474,-0.2398,-0.2279,-0.2071,-0.1943,-0.179,-0.1828,-0.1626,-0.1673,-0.1636,-0.1659,-0.1715,-0.1691,-0.1539,-0.1534,-0.153,-0.1527,0,-0.1964,-0.1995,-0.2047,-0.2127,-0.2195,-0.2259,-0.2326,-0.235,-0.2414,-0.2399,-0.2302,-0.2216,-0.2012,-0.1785,-0.1599,-0.1516,-0.1592,-0.1532,-0.1537,-0.1469,-0.1486,-0.1435,-0.1644,-0.1489,-0.1493,-0.1496,-0.1498,-0.1499,-0.1916,-0.194,-0.2004,-0.2071,-0.2141,-0.2156,-0.2144,-0.2182,-0.2166,-0.207,-0.2072,-0.1874,-0.1702,-0.1413,-0.1319,-0.1157,-0.1273,-0.1139,-0.1196,-0.1258,-0.1206,-0.1301,-0.1082,-0.1083,-0.1085,-0.1086,-0.1087,0,-0.1844,-0.1882,-0.1944,-0.1989,-0.1989,-0.2059,-0.207,-0.2002,-0.1886,-0.1821,-0.1694,-0.1459,-0.1235,-0.1117,-0.0938,-0.0863,-0.089,-0.0857,-0.0955,-0.0949,-0.1048,-0.1028,-0.0736,-0.0736,-0.0736,-0.0736,-0.0736,-0.0736,-0.1812,-0.1839,-0.1872,-0.1826,-0.1829,-0.1744,-0.1705,-0.1608,-0.1525,-0.1299,-0.1146,-0.106,-0.0971,-0.0944,-0.0807,-0.0754,-0.0782,-0.0735,-0.0789,-0.0909,-0.0942,-0.0974,-0.0962,-0.0661,-0.0661,-0.0652,-0.0652,-0.0652]},{"header":{"parameterUnit":"m.s-1","parameterCategory":2,"la1":30.2991,"la2":30.254,"lo1":-89.0895,"lo2":-89.0444,"dy":0.0017,"dx":0.0017,"nx":28,"ny":28,"refTime":"2026-02-24T09:00:00:Z","depth":"0","parameterNumber":3,"parameterNumberName":"V-component_of_CURRENTS"},"data":[0,0,0,0,0,0,0,0,0,0,0,0,0,0,0,0,0,0,0,0,0,0,0,0,0,0,0,0,0,0,0,0,0,0,0,0,0,0,0,0,0,0,0,0,0,0,0,0,0,0,0,0,0,0,0,0,0,0,-0.0222,-0.0221,0,-0.0174,-0.0174,-0.0173,-0.0132,-0.0132,-0.0132,-0.0131,-0.0027,-0.0025,-0.0022,0,0,0,0,0,0,0,0,0,0,0,0,0,-0.0227,-0.0228,-0.0222,-0.0221,-0.0221,-0.0175,-0.0174,-0.0173,-0.0132,-0.0132,-0.0132,-0.0131,-0.0028,-0.0025,-0.0022,0,0,0,0,0,0,0,0,0,0,0,0,0,-0.0206,-0.0228,-0.0222,-0.0196,-0.0193,-0.0175,-0.0174,-0.0173,-0.0132,-0.0132,-0.0131,-0.0131,-0.0029,-0.0025,-0.0021,-0.0008,0,0,-0.001,-0.0008,0,0,0,0,0,0,0,0,-0.0207,-0.0205,-0.02,-0.0198,-0.0195,-0.016,-0.0138,-0.0115,-0.0133,-0.0154,-0.0131,-0.0131,-0.0067,-0.0061,-0.0051,-0.0003,0.0001,-0.001,-0.0007,-0.0006,-0.0005,0,0,0,0,0,0,0,-0.0209,-0.0207,-0.0201,-0.02,-0.0197,-0.017,-0.0167,-0.0133,-0.0112,-0.0152,-0.0149,-0.0147,-0.0065,-0.0055,-0.0049,0.0003,-0.001,-0.0007,-0.0004,-0.0003,0.0093,0.0093,0,0,0,0,0,0,-0.0221,-0.0209,-0.0203,-0.02,-0.0202,-0.0171,-0.0167,-0.017,-0.0113,-0.0105,-0.0147,-0.0145,-0.0062,-0.0053,-0.0045,-0.0015,-0.0006,-0.0002,-0.0,0.0093,0.0093,0.0093,0,0,0,0,0,0,-0.0221,-0.0221,-0.0205,-0.0204,-0.02,-0.0172,-0.0176,-0.017,-0.016,-0.011,-0.0101,-0.0143,-0.0061,-0.005,-0.0016,-0.001,-0.0001,0.0003,0.0092,0.0093,0.0093,0.0039,0,0,0,0,0,0,-0.0222,-0.0222,-0.0227,-0.0205,-0.0201,-0.02,-0.0176,-0.0169,-0.016,-0.0156,-0.0104,-0.0094,-0.006,-0.0022,-0.0012,-0.0005,0.0006,0.0092,0.0092,0.0093,0.004,0.0038,0.0035,0,0,0,0,0,-0.0222,-0.0236,-0.0228,-0.0227,-0.021,-0.0201,-0.0196,-0.0172,-0.016,-0.016,-0.0122,-0.0095,-0.0011,-0.0019,-0.0007,0.0001,0.0092,0.0092,0.0093,0.0042,0.0038,0.0035,0,0,0,0,0,0,-0.0241,-0.0232,-0.0223,-0.0233,-0.022,-0.0195,-0.0193,-0.0177,-0.0149,-0.0143,-0.0095,-0.0082,-0.0051,-0.0017,-0.0027,0.0031,0.0047,0.005,0.0004,0.0001,-0.0002,-0.001,0.0009,0,0,0,0,0,-0.0249,-0.0256,-0.0241,-0.0247,-0.0244,-0.0219,-0.0212,-0.0198,-0.0171,-0.0159,-0.0122,-0.0078,-0.0039,-0.0015,0.002,0.0051,0.0094,0.0066,0.0063,0.0061,0.0062,0.0136,0.014,0.0096,0.0096,0.0096,0,0,-0.0257,-0.0253,-0.0256,-0.0251,-0.0238,-0.0242,-0.0213,-0.0209,-0.0205,-0.0151,-0.0132,-0.0091,-0.0035,-0.0002,0.0016,0.0028,0.0094,0.0062,0.0059,0.0062,0.0137,0.0142,0.0146,0.0096,0.0096,0.0096,0,0,-0.0283,-0.0275,-0.0292,-0.0287,-0.0277,-0.026,-0.0263,-0.024,-0.0222,-0.0202,-0.0158,-0.0112,-0.0063,-0.0014,0.0016,0.0023,0.0072,0.0032,0.0018,0.0089,0.0093,0.0098,0.0144,0.0153,0.0036,0.0036,0.0036,0,-0.0293,-0.0314,-0.0294,-0.0309,-0.0309,-0.0273,-0.029,-0.0267,-0.0235,-0.0212,-0.0203,-0.0107,-0.0065,-0.0003,-0.0004,0.0017,0.0056,0.0022,0.0085,0.0091,0.0096,0.0143,0.0153,0.0034,0.0034,0.0034,0.0035,0,-0.0333,-0.0348,-0.0357,-0.0364,-0.0359,-0.0367,-0.0338,-0.0321,-0.0294,-0.0262,-0.0204,-0.014,-0.0078,-0.0057,-0.003,0.0031,0.0044,0.0067,0.009,0.0097,0.0146,0.0157,0.003,0.0031,0.0032,0.0032,0,0,-0.0362,-0.0383,-0.0386,-0.0401,-0.0391,-0.0392,-0.0377,-0.0348,-0.0325,-0.0279,-0.0235,-0.0167,-0.0121,-0.0084,-0.0032,0.0029,0.0092,0.0057,0.0062,0.0095,0.0233,0.0256,0.0272,0.0126,0.0128,0.013,0.0246,0,-0.0401,-0.045,-0.0441,-0.0473,-0.0495,-0.0455,-0.044,-0.0403,-0.0356,-0.0302,-0.0215,-0.0154,-0.0133,-0.0091,-0.0032,0.0069,0.0123,0.0057,0.0228,0.0232,0.0247,0.0287,0.029,0.0396,0.0258,0.026,0.0261,0,-0.0445,-0.0473,-0.052,-0.0529,-0.0531,-0.0537,-0.0498,-0.048,-0.0388,-0.0341,-0.0262,-0.0188,-0.0087,-0.0067,0.0095,0.0051,0.0129,0.0203,0.021,0.0261,0.0279,0.0371,0.0423,0.0521,0.028,0.0279,0.0277,0,-0.0489,-0.0524,-0.0565,-0.0572,-0.0573,-0.0573,-0.0562,-0.0494,-0.045,-0.0354,-0.0286,-0.0183,-0.0087,0.0011,0.0153,0.0131,0.0335,0.033,0.0421,0.0423,0.0476,0.0479,0.0641,0.0443,0.0442,0.0442,0.0442,0,-0.054,-0.0571,-0.0591,-0.0617,-0.0644,-0.0622,-0.0607,-0.0575,-0.0478,-0.0399,-0.0307,-0.0202,-0.0056,0.0081,0.0165,0.0337,0.0349,0.0431,0.0466,0.0455,0.0455,0.0582,0.0614,0.0446,0.0445,0.0444,0.0444,0,-0.0589,-0.0602,-0.0653,-0.067,-0.0673,-0.0694,-0.0645,-0.0598,-0.0518,-0.0404,-0.0359,-0.0183,-0.0008,0.013,0.0321,0.0386,0.0593,0.0578,0.054,0.0569,0.0719,0.0746,0.0941,0.1017,0.0689,0.069,0.0691,0,-0.062,-0.0653,-0.0701,-0.0716,-0.0729,-0.0736,-0.0702,-0.0633,-0.0556,-0.0379,-0.0299,-0.0109,0.004,0.0309,0.0454,0.0612,0.0688,0.0715,0.0675,0.0745,0.0803,0.0815,0.0866,0.0719,0.072,0.0721,0.0722,0,-0.0677,-0.0694,-0.0736,-0.0757,-0.0752,-0.073,-0.0679,-0.0634,-0.0502,-0.04,-0.0225,-0.0106,0.0167,0.0364,0.0574,0.0663,0.0786,0.0742,0.0846,0.087,0.0867,0.095,0.0603,0.0732,0.0731,0.073,0.073,0.0729,-0.0709,-0.075,-0.0776,-0.0782,-0.0762,-0.0696,-0.0677,-0.0589,-0.0488,-0.0321,-0.0201,-0.0001,0.028,0.0572,0.0683,0.0909,0.0892,0.0966,0.1,0.1013,0.1071,0.073,0.0878,0.0878,0.0878,0.0878,0.0877,0,-0.0741,-0.0757,-0.0775,-0.0767,-0.0708,-0.0698,-0.0613,-0.0564,-0.0463,-0.0304,-0.0163,0.0193,0.0457,0.0717,0.102,0.1152,0.118,0.1226,0.125,0.1297,0.103,0.1015,0.1163,0.1163,0.1163,0.1163,0.1163,0.1163,-0.0754,-0.0777,-0.0767,-0.0682,-0.0665,-0.0591,-0.0553,-0.0495,-0.0387,-0.0169,0.0052,0.0256,0.0634,0.1072,0.1366,0.1397,0.1534,0.1511,0.1607,0.1408,0.1386,0.1365,0.1361,0.1579,0.158,0.1858,0.186,0.1862]}],[{"header":{"parameterUnit":"m.s-1","parameterCategory":2,"la1":30.2991,"la2":30.254,"lo1":-89.0895,"lo2":-89.0444,"dy":0.0017,"dx":0.0017,"nx":28,"ny":28,"refTime":"2026-02-24T09:00:00:Z","depth":"2","parameterNumber":2,"parameterNumberName":"U-component_of_CURRENTS"},"data":[0,0,0,0,0,0,0,0,0,0,0,0,0,0,0,0,0,0,0,0,0,0,0,0,0,0,0,0,0,0,0,0,0,0,0,0,0,0,0,0,0,0,0,0,0,0,0,0,0,0,0,0,0,0,0,0,0,0,-0.2011,-0.2012,0,-0.2036,-0.2036,-0.2037,-0.2011,-0.201,-0.2009,-0.2008,-0.1987,-0.1987,-0.1987,0,0,0,0,0,0,0,0,0,0,0,0,0,-0.1963,-0.1964,-0.2011,-0.2012,-0.2012,-0.2036,-0.2036,-0.2037,-0.2011,-0.201,-0.2009,-0.2008,-0.1987,-0.1987,-0.1987,0,0,0,0,0,0,0,0,0,0,0,0,0,-0.1984,-0.1964,-0.2011,-0.2003,-0.2003,-0.2036,-0.2036,-0.2037,-0.2011,-0.201,-0.2008,-0.2007,-0.1987,-0.1987,-0.1987,-0.2016,0,0,-0.1988,-0.1989,0,0,0,0,0,0,0,0,-0.1983,-0.1986,-0.2004,-0.2004,-0.2003,-0.202,-0.2012,-0.2028,-0.2011,-0.2006,-0.2008,-0.2006,-0.1996,-0.1995,-0.2001,-0.2015,-0.2014,-0.1989,-0.1989,-0.1989,-0.1989,0,0,0,0,0,0,0,-0.1982,-0.1985,-0.202,-0.2005,-0.2004,-0.2006,-0.2007,-0.2015,-0.2006,-0.2007,-0.2005,-0.2011,-0.1995,-0.2001,-0.2001,-0.2014,-0.1989,-0.1989,-0.1989,-0.1989,-0.2056,-0.2058,0,0,0,0,0,0,-0.1982,-0.1984,-0.2019,-0.2021,-0.1991,-0.2008,-0.2009,-0.2015,-0.2007,-0.2005,-0.2012,-0.2009,-0.2001,-0.2,-0.2,-0.2033,-0.1989,-0.1989,-0.199,-0.2055,-0.2057,-0.2058,0,0,0,0,0,0,-0.1981,-0.1985,-0.2018,-0.2004,-0.2008,-0.201,-0.2017,-0.2016,-0.2018,-0.2012,-0.2008,-0.2014,-0.2,-0.1999,-0.2012,-0.2032,-0.1989,-0.199,-0.2053,-0.2055,-0.2057,-0.21,0,0,0,0,0,0,-0.1979,-0.1984,-0.1988,-0.2004,-0.2009,-0.2039,-0.2018,-0.2018,-0.2024,-0.2021,-0.2013,-0.2009,-0.1999,-0.2012,-0.2012,-0.2031,-0.199,-0.2051,-0.2054,-0.2057,-0.2096,-0.2103,-0.2109,0,0,0,0,0,-0.1978,-0.1989,-0.1988,-0.1992,-0.2014,-0.204,-0.2043,-0.2038,-0.2026,-0.2033,-0.203,-0.2009,-0.203,-0.2013,-0.2014,-0.2033,-0.205,-0.2053,-0.2056,-0.2094,-0.2102,-0.2109,0,0,0,0,0,0,-0.1969,-0.1988,-0.1987,-0.2002,-0.202,-0.2036,-0.2042,-0.2043,-0.2048,-0.204,-0.2028,-0.2026,-0.2046,-0.204,-0.2021,-0.2064,-0.2038,-0.2041,-0.2066,-0.2073,-0.208,-0.2073,-0.199,0,0,0,0,0,-0.1971,-0.198,-0.2002,-0.2013,-0.2023,-0.2034,-0.2042,-0.2044,-0.2052,-0.2052,-0.2049,-0.2051,-0.2065,-0.2066,-0.2074,-0.2097,-0.2071,-0.2112,-0.2119,-0.2124,-0.2121,-0.2108,-0.2112,-0.207,-0.207,-0.207,0,0,-0.1969,-0.1981,-0.1985,-0.2011,-0.2022,-0.2048,-0.2035,-0.2052,-0.2072,-0.205,-0.207,-0.2072,-0.2077,-0.2103,-0.2111,-0.2096,-0.2122,-0.2128,-0.2133,-0.2126,-0.2112,-0.2115,-0.2119,-0.2072,-0.2072,-0.2071,0,0,-0.1977,-0.1984,-0.1997,-0.2018,-0.204,-0.2054,-0.2061,-0.2082,-0.2087,-0.2114,-0.2105,-0.2119,-0.2137,-0.2145,-0.2152,-0.22,-0.2158,-0.2206,-0.2229,-0.2217,-0.2219,-0.2221,-0.2185,-0.2183,-0.2207,-0.2207,-0.2207,0,-0.1974,-0.1994,-0.2006,-0.203,-0.2048,-0.2059,-0.2084,-0.2103,-0.2124,-0.2133,-0.2123,-0.2157,-0.2159,-0.2191,-0.2209,-0.2213,-0.2188,-0.2196,-0.2222,-0.2224,-0.2225,-0.2188,-0.2185,-0.2209,-0.2209,-0.2209,-0.2209,0,-0.1994,-0.2014,-0.2026,-0.2059,-0.2083,-0.2105,-0.2137,-0.2156,-0.2164,-0.2178,-0.2207,-0.2214,-0.2229,-0.2241,-0.224,-0.2262,-0.2234,-0.2231,-0.2197,-0.2231,-0.219,-0.2187,-0.2213,-0.2212,-0.2211,-0.2211,0,0,-0.1975,-0.2028,-0.2031,-0.2053,-0.2098,-0.2121,-0.2161,-0.2198,-0.2219,-0.2238,-0.2259,-0.2293,-0.2286,-0.2294,-0.2294,-0.2289,-0.228,-0.2265,-0.2263,-0.2218,-0.223,-0.2117,-0.2102,-0.2276,-0.2276,-0.2276,-0.2193,0,-0.1984,-0.2028,-0.2056,-0.2102,-0.2129,-0.2162,-0.22,-0.2235,-0.2257,-0.2282,-0.2292,-0.2315,-0.231,-0.2317,-0.2313,-0.2293,-0.2274,-0.2301,-0.2213,-0.221,-0.2096,-0.2096,-0.1956,-0.1863,-0.219,-0.2189,-0.2189,0,-0.1988,-0.202,-0.2064,-0.2124,-0.2139,-0.2172,-0.2224,-0.2261,-0.2302,-0.2318,-0.2337,-0.2342,-0.2352,-0.2337,-0.2303,-0.2317,-0.2275,-0.225,-0.2246,-0.2122,-0.2091,-0.1885,-0.1844,-0.2183,-0.2183,-0.2184,-0.2184,0,-0.1959,-0.2023,-0.2054,-0.2076,-0.2149,-0.2175,-0.2212,-0.2265,-0.2289,-0.2335,-0.2348,-0.2361,-0.2356,-0.2326,-0.2273,-0.2289,-0.2208,-0.2225,-0.2078,-0.2069,-0.1922,-0.1899,-0.2184,-0.2184,-0.2185,-0.2185,-0.2185,0,-0.1952,-0.1978,-0.2043,-0.2063,-0.2103,-0.2162,-0.22,-0.2244,-0.229,-0.2306,-0.2356,-0.2353,-0.2351,-0.2308,-0.2266,-0.2143,-0.2197,-0.2068,-0.2039,-0.1932,-0.1912,-0.2173,-0.2173,-0.2182,-0.2182,-0.2183,-0.2183,0,-0.1908,-0.1955,-0.1994,-0.2067,-0.2089,-0.2115,-0.2181,-0.2195,-0.2266,-0.2284,-0.2297,-0.2331,-0.2271,-0.2238,-0.217,-0.211,-0.2025,-0.1965,-0.1824,-0.1779,-0.1899,-0.1902,-0.1804,-0.1799,-0.1796,-0.1792,-0.1789,0,-0.1887,-0.1901,-0.1973,-0.1986,-0.2017,-0.2063,-0.2078,-0.2162,-0.217,-0.2251,-0.2234,-0.2221,-0.2152,-0.2015,-0.1908,-0.1783,-0.1885,-0.1599,-0.161,-0.1877,-0.1859,-0.1869,-0.1878,-0.1433,-0.1428,-0.1423,-0.142,0,-0.1836,-0.1859,-0.189,-0.1902,-0.1923,-0.1949,-0.1981,-0.1992,-0.2073,-0.209,-0.2078,-0.2041,-0.1924,-0.1719,-0.1575,-0.1502,-0.1613,-0.1501,-0.1808,-0.155,-0.152,-0.1505,-0.1527,-0.1379,-0.1383,-0.1386,-0.1389,-0.139,-0.178,-0.1778,-0.1793,-0.1789,-0.1806,-0.1792,-0.1768,-0.1805,-0.1797,-0.1776,-0.1836,-0.1712,-0.1681,-0.1353,-0.1252,-0.1178,-0.1299,-0.1258,-0.1276,-0.1297,-0.1268,-0.1232,-0.1031,-0.1033,-0.1034,-0.1036,-0.1037,0,-0.1685,-0.1675,-0.1667,-0.165,-0.159,-0.1654,-0.1648,-0.1589,-0.1524,-0.1525,-0.1466,-0.1256,-0.1095,-0.1069,-0.0875,-0.0831,-0.0864,-0.0813,-0.0869,-0.0908,-0.0942,-0.09,-0.0563,-0.0562,-0.056,-0.0559,0,0,-0.1632,-0.1572,-0.1546,-0.1405,-0.1397,-0.1289,-0.1259,-0.1208,-0.1168,-0.1063,-0.0982,-0.1005,-0.1018,-0.0785,-0.0736,-0.0615,-0.0763,-0.0582,-0.096,-0.1065,-0.1098,-0.1191,-0.1166,0,0,0,0,0]},{"header":{"parameterUnit":"m.s-1","parameterCategory":2,"la1":30.2991,"la2":30.254,"lo1":-89.0895,"lo2":-89.0444,"dy":0.0017,"dx":0.0017,"nx":28,"ny":28,"refTime":"2026-02-24T09:00:00:Z","depth":"2","parameterNumber":3,"parameterNumberName":"V-component_of_CURRENTS"},"data":[0,0,0,0,0,0,0,0,0,0,0,0,0,0,0,0,0,0,0,0,0,0,0,0,0,0,0,0,0,0,0,0,0,0,0,0,0,0,0,0,0,0,0,0,0,0,0,0,0,0,0,0,0,0,0,0,0,0,-0.0332,-0.0332,0,-0.0292,-0.0291,-0.029,-0.0254,-0.0253,-0.0253,-0.0253,-0.016,-0.0158,-0.0156,0,0,0,0,0,0,0,0,0,0,0,0,0,-0.0334,-0.0334,-0.0332,-0.0331,-0.0331,-0.0292,-0.0291,-0.029,-0.0254,-0.0253,-0.0253,-0.0253,-0.0161,-0.0159,-0.0156,0,0,0,0,0,0,0,0,0,0,0,0,0,-0.0316,-0.0335,-0.0332,-0.0309,-0.0307,-0.0292,-0.0291,-0.029,-0.0254,-0.0253,-0.0253,-0.0252,-0.0162,-0.0159,-0.0156,-0.0146,0,0,-0.0146,-0.0144,0,0,0,0,0,0,0,0,-0.0318,-0.0316,-0.0313,-0.0311,-0.0308,-0.0278,-0.0258,-0.024,-0.0254,-0.0273,-0.0253,-0.0252,-0.0196,-0.019,-0.0183,-0.0141,-0.0137,-0.0146,-0.0144,-0.0142,-0.0141,0,0,0,0,0,0,0,-0.0319,-0.0317,-0.0315,-0.0312,-0.031,-0.0286,-0.0283,-0.0254,-0.0236,-0.0271,-0.0269,-0.0266,-0.0194,-0.0186,-0.018,-0.0136,-0.0146,-0.0143,-0.0141,-0.014,-0.0068,-0.0068,0,0,0,0,0,0,-0.0329,-0.0319,-0.0316,-0.0314,-0.0313,-0.0287,-0.0283,-0.0287,-0.0237,-0.023,-0.0267,-0.0265,-0.0192,-0.0184,-0.0177,-0.016,-0.0142,-0.0139,-0.0137,-0.0068,-0.0068,-0.0068,0,0,0,0,0,0,-0.033,-0.033,-0.0318,-0.0316,-0.0313,-0.0288,-0.0292,-0.0287,-0.0278,-0.0235,-0.0226,-0.0263,-0.0191,-0.0181,-0.0153,-0.0156,-0.0138,-0.0135,-0.0068,-0.0068,-0.0068,-0.0128,0,0,0,0,0,0,-0.033,-0.033,-0.0335,-0.0317,-0.0313,-0.0315,-0.0292,-0.0286,-0.0278,-0.0275,-0.0229,-0.022,-0.019,-0.0158,-0.015,-0.0151,-0.0132,-0.0068,-0.0068,-0.0068,-0.0126,-0.013,-0.0133,0,0,0,0,0,-0.033,-0.0343,-0.0336,-0.0336,-0.0322,-0.0316,-0.0312,-0.0291,-0.0279,-0.028,-0.0247,-0.0221,-0.0152,-0.0156,-0.0146,-0.0147,-0.0068,-0.0068,-0.0068,-0.0124,-0.0129,-0.0133,0,0,0,0,0,0,-0.0347,-0.034,-0.0332,-0.0342,-0.0332,-0.031,-0.0309,-0.0296,-0.0271,-0.0266,-0.0223,-0.0212,-0.0189,-0.0159,-0.0164,-0.0125,-0.0105,-0.0103,-0.0151,-0.0156,-0.0159,-0.0169,-0.013,0,0,0,0,0,-0.0355,-0.0361,-0.0349,-0.0356,-0.0354,-0.0332,-0.0326,-0.0314,-0.0291,-0.0281,-0.0249,-0.0212,-0.0182,-0.0163,-0.0133,-0.0112,-0.0073,-0.0105,-0.0109,-0.0112,-0.0113,-0.0054,-0.0053,-0.0068,-0.0068,-0.0068,0,0,-0.0362,-0.036,-0.0363,-0.036,-0.0349,-0.0356,-0.0327,-0.0324,-0.0326,-0.0274,-0.0262,-0.0226,-0.018,-0.0159,-0.0145,-0.0133,-0.0088,-0.0112,-0.0116,-0.0114,-0.0054,-0.0053,-0.0051,-0.0068,-0.0068,-0.0068,0,0,-0.0387,-0.038,-0.0396,-0.0393,-0.0386,-0.0373,-0.0375,-0.0357,-0.0343,-0.0329,-0.0291,-0.0257,-0.0215,-0.018,-0.0158,-0.0163,-0.0114,-0.0154,-0.0177,-0.0121,-0.0119,-0.0117,-0.0073,-0.0066,-0.0153,-0.0153,-0.0153,0,-0.0397,-0.0418,-0.0399,-0.0416,-0.0419,-0.0386,-0.0405,-0.0387,-0.0361,-0.0348,-0.0333,-0.0261,-0.0224,-0.0188,-0.0191,-0.0171,-0.0135,-0.0166,-0.0126,-0.0124,-0.012,-0.0075,-0.0067,-0.0156,-0.0155,-0.0155,-0.0155,0,-0.0436,-0.0452,-0.0461,-0.0472,-0.047,-0.0481,-0.046,-0.0449,-0.0426,-0.0402,-0.0363,-0.0308,-0.0263,-0.0246,-0.0221,-0.0182,-0.0163,-0.0142,-0.0118,-0.0123,-0.0074,-0.0065,-0.016,-0.0159,-0.0158,-0.0157,0,0,-0.0463,-0.0486,-0.0489,-0.0509,-0.0503,-0.051,-0.0505,-0.0492,-0.0484,-0.0442,-0.0422,-0.0364,-0.0324,-0.0296,-0.0251,-0.0202,-0.0153,-0.0168,-0.0164,-0.013,-0.0034,-0.0026,-0.0014,-0.0124,-0.0122,-0.0121,-0.0012,0,-0.05,-0.0551,-0.0546,-0.0586,-0.0611,-0.0581,-0.0581,-0.0559,-0.0525,-0.0494,-0.0422,-0.0385,-0.0346,-0.032,-0.0266,-0.0177,-0.0129,-0.0184,-0.0029,-0.0025,-0.0021,-0.0003,-0.0024,0.0072,-0.0003,-0.0001,0.0,0,-0.0543,-0.0573,-0.0625,-0.0652,-0.0657,-0.067,-0.066,-0.0654,-0.0595,-0.0564,-0.0504,-0.0443,-0.0363,-0.033,-0.0179,-0.0216,-0.0135,-0.0066,-0.0059,-0.0023,0.0002,0.0068,0.0092,0.0017,0.0015,0.0014,0.0013,0,-0.0586,-0.0628,-0.0674,-0.0685,-0.0704,-0.0713,-0.0713,-0.0675,-0.0668,-0.06,-0.0573,-0.0472,-0.0407,-0.0296,-0.0152,-0.0162,0.0016,0.0025,0.0108,0.0109,0.0137,0.0138,0.0126,0.0126,0.0126,0.0125,0.0125,0,-0.0636,-0.0672,-0.0699,-0.0729,-0.0776,-0.0762,-0.0785,-0.0766,-0.0724,-0.0708,-0.061,-0.0559,-0.0392,-0.027,-0.0157,0.0009,0.0019,0.0109,0.0142,0.0114,0.0112,0.01,0.0096,0.0129,0.0129,0.0128,0.0127,0,-0.0681,-0.0698,-0.0758,-0.0791,-0.0804,-0.0837,-0.0851,-0.086,-0.0803,-0.0774,-0.075,-0.0606,-0.0437,-0.0274,-0.0074,0.0013,0.016,0.0213,0.0162,0.0186,0.0214,0.0205,0.0316,0.0317,0.0318,0.0319,0.032,0,-0.0712,-0.0747,-0.0813,-0.0854,-0.0875,-0.0913,-0.094,-0.0911,-0.0914,-0.0798,-0.0789,-0.061,-0.0488,-0.0194,0.0004,0.0208,0.0211,0.0294,0.0271,0.0215,0.0236,0.0225,0.0215,0.0286,0.0287,0.0287,0.0287,0,-0.0771,-0.0791,-0.0844,-0.0931,-0.098,-0.1027,-0.1055,-0.1064,-0.1007,-0.0949,-0.0832,-0.0716,-0.0419,-0.018,0.0082,0.0197,0.0256,0.0306,0.029,0.0229,0.0193,0.0212,0.0202,0.0291,0.029,0.029,0.029,0.029,-0.0809,-0.0864,-0.0934,-0.1015,-0.1075,-0.1127,-0.1149,-0.1136,-0.1112,-0.0982,-0.0879,-0.0645,-0.0436,-0.0029,0.014,0.0323,0.031,0.035,0.0347,0.0344,0.0309,0.0276,0.0382,0.0382,0.0383,0.0383,0.0383,0,-0.0862,-0.0925,-0.1011,-0.1108,-0.1178,-0.1187,-0.1218,-0.1193,-0.1138,-0.0962,-0.0816,-0.0532,-0.0275,-0.0024,0.0256,0.0379,0.0371,0.0408,0.0367,0.0362,0.0359,0.0323,0.0401,0.0401,0.0402,0.0402,0,0,-0.0894,-0.0992,-0.1043,-0.1178,-0.1233,-0.1284,-0.1289,-0.1212,-0.1082,-0.0881,-0.067,-0.0475,-0.0211,-0.0015,0.014,0.0293,0.0297,0.031,0.0279,0.0206,0.0201,0.0306,0.0243,0,0,0,0,0]}],[{"header":{"parameterUnit":"m.s-1","parameterCategory":2,"la1":30.2991,"la2":30.254,"lo1":-89.0895,"lo2":-89.0444,"dy":0.0017,"dx":0.0017,"nx":28,"ny":28,"refTime":"2026-02-24T09:00:00:Z","depth":"4","parameterNumber":2,"parameterNumberName":"U-component_of_CURRENTS"},"data":[0,0,0,0,0,0,0,0,0,0,0,0,0,0,0,0,0,0,0,0,0,0,0,0,0,0,0,0,0,0,0,0,0,0,0,0,0,0,0,0,0,0,0,0,0,0,0,0,0,0,0,0,0,0,0,0,0,0,-0.1474,-0.1474,0,-0.1523,-0.1524,-0.1524,-0.1548,-0.1548,-0.1548,-0.1549,-0.1588,-0.1589,-0.159,0,0,0,0,0,0,0,0,0,0,0,0,0,-0.141,-0.141,-0.1474,-0.1475,-0.1475,-0.1523,-0.1524,-0.1524,-0.1548,-0.1548,-0.1548,-0.1549,-0.1588,-0.1589,-0.159,0,0,0,0,0,0,0,0,0,0,0,0,0,-0.1445,-0.1411,-0.1474,-0.1494,-0.1496,-0.1523,-0.1524,-0.1524,-0.1548,-0.1548,-0.1549,-0.1549,-0.1587,-0.1589,-0.159,-0.1597,0,0,-0.1595,-0.1595,0,0,0,0,0,0,0,0,-0.1443,-0.1447,-0.149,-0.1492,-0.1495,-0.153,-0.1516,-0.1548,-0.1548,-0.1527,-0.1549,-0.1549,-0.1568,-0.1571,-0.1579,-0.1599,-0.16,-0.1595,-0.1596,-0.1596,-0.1597,0,0,0,0,0,0,0,-0.144,-0.1445,-0.1492,-0.1491,-0.1494,-0.1503,-0.1508,-0.1522,-0.1546,-0.1529,-0.1531,-0.1538,-0.157,-0.1578,-0.158,-0.1601,-0.1595,-0.1596,-0.1597,-0.1598,-0.1691,-0.1692,0,0,0,0,0,0,-0.1436,-0.1443,-0.1491,-0.1494,-0.147,-0.1504,-0.151,-0.1518,-0.1546,-0.1551,-0.1538,-0.1539,-0.1575,-0.1579,-0.1582,-0.1645,-0.1596,-0.1598,-0.1599,-0.1689,-0.1691,-0.1693,0,0,0,0,0,0,-0.1434,-0.144,-0.1489,-0.147,-0.1477,-0.1505,-0.1514,-0.1519,-0.1549,-0.1553,-0.1557,-0.1566,-0.1575,-0.158,-0.1618,-0.1644,-0.1598,-0.16,-0.1687,-0.169,-0.1692,-0.1736,0,0,0,0,0,0,-0.1432,-0.1439,-0.1456,-0.147,-0.1478,-0.1519,-0.1515,-0.152,-0.1552,-0.1555,-0.1577,-0.158,-0.1576,-0.1616,-0.1619,-0.1646,-0.1601,-0.1685,-0.1688,-0.1691,-0.1733,-0.174,-0.1746,0,0,0,0,0,-0.143,-0.1448,-0.1457,-0.1463,-0.1497,-0.152,-0.1526,-0.1545,-0.1553,-0.1572,-0.1591,-0.158,-0.1637,-0.1618,-0.1622,-0.1649,-0.1684,-0.1688,-0.1691,-0.173,-0.1738,-0.1746,0,0,0,0,0,0,-0.1431,-0.1453,-0.1462,-0.1488,-0.151,-0.1525,-0.1548,-0.156,-0.159,-0.1599,-0.1601,-0.1605,-0.1648,-0.1646,-0.1626,-0.1687,-0.1659,-0.1664,-0.1687,-0.1695,-0.1702,-0.1689,-0.1602,0,0,0,0,0,-0.1439,-0.1459,-0.1479,-0.1502,-0.1515,-0.1537,-0.1554,-0.1568,-0.159,-0.1604,-0.1622,-0.1642,-0.1662,-0.1678,-0.1694,-0.1728,-0.1705,-0.1749,-0.1756,-0.1761,-0.1754,-0.1745,-0.1749,-0.1705,-0.1705,-0.1705,0,0,-0.1447,-0.1461,-0.1475,-0.1505,-0.1524,-0.1549,-0.1548,-0.1581,-0.1608,-0.1603,-0.1654,-0.1667,-0.1678,-0.1715,-0.1734,-0.172,-0.1764,-0.1766,-0.177,-0.176,-0.1749,-0.1753,-0.1757,-0.1707,-0.1707,-0.1706,0,0,-0.1463,-0.1487,-0.1506,-0.1528,-0.1561,-0.1575,-0.159,-0.1621,-0.1643,-0.1688,-0.1692,-0.1722,-0.176,-0.1767,-0.1776,-0.1829,-0.1799,-0.1844,-0.1866,-0.1858,-0.1861,-0.1863,-0.1842,-0.1841,-0.1847,-0.1847,-0.1847,0,-0.1475,-0.1497,-0.1517,-0.1541,-0.1563,-0.1589,-0.1615,-0.1643,-0.1685,-0.1703,-0.1713,-0.1767,-0.1781,-0.1811,-0.1834,-0.1842,-0.1827,-0.1833,-0.1864,-0.1866,-0.1867,-0.1845,-0.1844,-0.185,-0.1849,-0.1849,-0.1849,0,-0.1493,-0.1524,-0.154,-0.1576,-0.1605,-0.1634,-0.1668,-0.1704,-0.1736,-0.1756,-0.1805,-0.1825,-0.185,-0.1868,-0.187,-0.1895,-0.1878,-0.1871,-0.1837,-0.1874,-0.1848,-0.1847,-0.1853,-0.1852,-0.1852,-0.1851,0,0,-0.1483,-0.1541,-0.1549,-0.1573,-0.1626,-0.1647,-0.1699,-0.174,-0.1766,-0.1816,-0.1843,-0.1892,-0.1898,-0.1908,-0.1916,-0.1917,-0.1922,-0.1904,-0.1903,-0.1871,-0.1895,-0.1759,-0.1744,-0.1921,-0.1921,-0.1921,-0.1873,0,-0.1492,-0.1536,-0.1567,-0.1618,-0.1643,-0.1687,-0.1727,-0.1771,-0.1808,-0.1843,-0.187,-0.1902,-0.1915,-0.193,-0.1936,-0.1926,-0.192,-0.1935,-0.1874,-0.1872,-0.1737,-0.1738,-0.1921,-0.1871,-0.1871,-0.1871,-0.187,0,-0.149,-0.1523,-0.1573,-0.1632,-0.1648,-0.1688,-0.1746,-0.1785,-0.1836,-0.1863,-0.1898,-0.1914,-0.1939,-0.1939,-0.1933,-0.1943,-0.1923,-0.1909,-0.1907,-0.1759,-0.1732,-0.1828,-0.1867,-0.1867,-0.1867,-0.1868,-0.1868,0,-0.1453,-0.1522,-0.1562,-0.1585,-0.1659,-0.1695,-0.1736,-0.1793,-0.181,-0.1874,-0.1879,-0.1922,-0.1926,-0.1926,-0.1909,-0.1924,-0.1878,-0.1891,-0.1747,-0.1737,-0.1855,-0.1853,-0.187,-0.1871,-0.1871,-0.1871,-0.1871,0,-0.143,-0.1465,-0.1553,-0.1574,-0.1616,-0.1682,-0.1719,-0.1767,-0.1811,-0.1807,-0.1882,-0.1867,-0.1921,-0.1902,-0.1899,-0.1801,-0.1868,-0.1734,-0.1709,-0.1877,-0.1878,-0.1853,-0.1852,-0.1869,-0.1869,-0.187,-0.187,0,-0.1372,-0.1435,-0.1482,-0.1571,-0.1598,-0.1629,-0.169,-0.1692,-0.1764,-0.1757,-0.1772,-0.1819,-0.1795,-0.1818,-0.1803,-0.1753,-0.1702,-0.1651,-0.1815,-0.1802,-0.1573,-0.1575,-0.1484,-0.1479,-0.1474,-0.147,-0.1467,0,-0.134,-0.1363,-0.1459,-0.1473,-0.1517,-0.1568,-0.1575,-0.1656,-0.1646,-0.1698,-0.1665,-0.1678,-0.1693,-0.1559,-0.1617,-0.158,-0.1567,-0.1531,-0.1565,-0.1545,-0.1531,-0.154,-0.1548,-0.146,-0.1459,-0.1458,-0.1456,0,-0.1272,-0.1322,-0.1355,-0.1378,-0.1402,-0.1417,-0.1443,-0.1426,-0.149,-0.1566,-0.1506,-0.1491,-0.1452,-0.1455,-0.1425,-0.141,-0.1555,-0.1484,-0.1494,-0.1526,-0.1516,-0.1508,-0.1521,-0.1441,-0.1443,-0.1445,-0.1445,0,-0.1214,-0.1212,-0.1248,-0.125,-0.1272,-0.1241,-0.1287,-0.1263,-0.1272,-0.1343,-0.1317,-0.1353,-0.1416,-0.1362,-0.1341,-0.1307,-0.1299,-0.1268,-0.1289,-0.1307,-0.1274,-0.1236,-0.1035,0,0,0,0,0,-0.1141,-0.1108,-0.1102,-0.1095,-0.111,-0.112,-0.1166,-0.1212,-0.1284,-0.1192,-0.1253,-0.1216,-0.1184,-0.1216,-0.1145,-0.1268,-0.1309,-0.118,-0.1286,-0.1354,-0.1372,-0.1351,0,0,0,0,0,0,-0.1084,-0.1081,-0.1054,-0.095,-0.0917,-0.0912,-0.0942,-0.1006,-0.0972,-0.1064,-0.1054,-0.1126,-0.112,-0.1194,-0.1112,-0.112,-0.1158,-0.1216,-0.1212,-0.1343,-0.136,-0.1374,-0.1359,0,0,0,0,0]},{"header":{"parameterUnit":"m.s-1","parameterCategory":2,"la1":30.2991,"la2":30.254,"lo1":-89.0895,"lo2":-89.0444,"dy":0.0017,"dx":0.0017,"nx":28,"ny":28,"refTime":"2026-02-24T09:00:00:Z","depth":"4","parameterNumber":3,"parameterNumberName":"V-component_of_CURRENTS"},"data":[0,0,0,0,0,0,0,0,0,0,0,0,0,0,0,0,0,0,0,0,0,0,0,0,0,0,0,0,0,0,0,0,0,0,0,0,0,0,0,0,0,0,0,0,0,0,0,0,0,0,0,0,0,0,0,0,0,0,-0.0277,-0.0277,0,-0.0255,-0.0255,-0.0255,-0.0235,-0.0235,-0.0235,-0.0235,-0.0171,-0.0169,-0.0168,0,0,0,0,0,0,0,0,0,0,0,0,0,-0.0271,-0.0272,-0.0277,-0.0277,-0.0277,-0.0255,-0.0255,-0.0255,-0.0235,-0.0235,-0.0235,-0.0235,-0.0172,-0.017,-0.0168,0,0,0,0,0,0,0,0,0,0,0,0,0,-0.0263,-0.0272,-0.0277,-0.0265,-0.0264,-0.0256,-0.0255,-0.0255,-0.0235,-0.0235,-0.0235,-0.0235,-0.0172,-0.017,-0.0168,-0.0157,0,0,-0.016,-0.0159,0,0,0,0,0,0,0,0,-0.0264,-0.0263,-0.0267,-0.0266,-0.0265,-0.0249,-0.023,-0.022,-0.0235,-0.0245,-0.0235,-0.0235,-0.0194,-0.019,-0.0185,-0.0154,-0.0152,-0.016,-0.0159,-0.0158,-0.0157,0,0,0,0,0,0,0,-0.0264,-0.0264,-0.0268,-0.0267,-0.0266,-0.025,-0.0249,-0.0228,-0.0219,-0.0244,-0.0243,-0.0242,-0.0193,-0.0188,-0.0184,-0.0151,-0.016,-0.0158,-0.0157,-0.0156,-0.0114,-0.0114,0,0,0,0,0,0,-0.0271,-0.0265,-0.0268,-0.0267,-0.0265,-0.0251,-0.025,-0.0253,-0.0221,-0.0216,-0.0242,-0.0241,-0.0192,-0.0186,-0.0181,-0.0182,-0.0158,-0.0156,-0.0154,-0.0113,-0.0114,-0.0114,0,0,0,0,0,0,-0.0271,-0.0272,-0.0269,-0.0266,-0.0265,-0.0252,-0.0256,-0.0253,-0.0252,-0.022,-0.0214,-0.0245,-0.0191,-0.0184,-0.0169,-0.0179,-0.0154,-0.0152,-0.0113,-0.0113,-0.0114,-0.0174,0,0,0,0,0,0,-0.0271,-0.0272,-0.0279,-0.0267,-0.0265,-0.0272,-0.0256,-0.0253,-0.0252,-0.025,-0.022,-0.0213,-0.0191,-0.0172,-0.0166,-0.0175,-0.0151,-0.0113,-0.0113,-0.0114,-0.0172,-0.0177,-0.0181,0,0,0,0,0,-0.0271,-0.0283,-0.0279,-0.028,-0.0275,-0.0273,-0.0271,-0.026,-0.0252,-0.0257,-0.0235,-0.0215,-0.0171,-0.0171,-0.0164,-0.0172,-0.0112,-0.0113,-0.0114,-0.017,-0.0176,-0.0181,0,0,0,0,0,0,-0.0284,-0.0282,-0.0278,-0.0288,-0.0284,-0.027,-0.0273,-0.0265,-0.0252,-0.025,-0.0218,-0.021,-0.0201,-0.0177,-0.0177,-0.0161,-0.0138,-0.0138,-0.0184,-0.0189,-0.0193,-0.0202,-0.0149,0,0,0,0,0,-0.0291,-0.0299,-0.0292,-0.0301,-0.0301,-0.0288,-0.0286,-0.028,-0.0266,-0.0261,-0.024,-0.0215,-0.0198,-0.0186,-0.0166,-0.0156,-0.0124,-0.0156,-0.0161,-0.0165,-0.0166,-0.0128,-0.0129,-0.0116,-0.0116,-0.0116,0,0,-0.0298,-0.0298,-0.0303,-0.0304,-0.0299,-0.0309,-0.0287,-0.029,-0.0297,-0.0255,-0.0256,-0.0231,-0.0199,-0.0191,-0.0184,-0.0172,-0.0152,-0.0166,-0.0169,-0.0168,-0.0128,-0.013,-0.0131,-0.0116,-0.0116,-0.0116,0,0,-0.032,-0.0318,-0.0333,-0.0334,-0.0333,-0.0327,-0.0331,-0.0321,-0.0316,-0.0312,-0.0286,-0.0267,-0.024,-0.022,-0.0206,-0.0221,-0.0178,-0.0214,-0.0242,-0.0205,-0.0206,-0.0206,-0.017,-0.0167,-0.0215,-0.0215,-0.0215,0,-0.033,-0.0349,-0.0337,-0.0352,-0.036,-0.0339,-0.0359,-0.0351,-0.0338,-0.0334,-0.032,-0.0281,-0.0254,-0.0242,-0.0248,-0.0232,-0.0202,-0.0227,-0.0211,-0.0211,-0.021,-0.0173,-0.0168,-0.0218,-0.0218,-0.0217,-0.0217,0,-0.0362,-0.0379,-0.0388,-0.0403,-0.0408,-0.0421,-0.0412,-0.0412,-0.0401,-0.0389,-0.0374,-0.0336,-0.0311,-0.0301,-0.0278,-0.0264,-0.0241,-0.0224,-0.02,-0.0215,-0.0175,-0.0169,-0.0222,-0.0221,-0.022,-0.0219,0,0,-0.038,-0.0407,-0.0412,-0.0434,-0.0438,-0.0449,-0.0458,-0.0461,-0.0469,-0.0443,-0.0445,-0.0408,-0.038,-0.0362,-0.0328,-0.0295,-0.0265,-0.0261,-0.0257,-0.0229,-0.0181,-0.0187,-0.0181,-0.0243,-0.0243,-0.0242,-0.0157,0,-0.0411,-0.0459,-0.046,-0.0504,-0.0529,-0.0517,-0.0532,-0.0529,-0.0513,-0.0507,-0.046,-0.0448,-0.0406,-0.0395,-0.0355,-0.0286,-0.0252,-0.029,-0.0167,-0.0163,-0.017,-0.0175,-0.024,-0.0152,-0.0151,-0.015,-0.0149,0,-0.0443,-0.0474,-0.0526,-0.0566,-0.0576,-0.0598,-0.0616,-0.0623,-0.0601,-0.0587,-0.0555,-0.0514,-0.0463,-0.0428,-0.0312,-0.0336,-0.0267,-0.021,-0.0205,-0.0185,-0.0158,-0.0131,-0.0138,-0.0138,-0.0139,-0.014,-0.0141,0,-0.0472,-0.052,-0.0568,-0.0582,-0.0619,-0.0641,-0.0656,-0.0649,-0.0662,-0.0634,-0.0635,-0.0561,-0.0531,-0.0428,-0.031,-0.0307,-0.0181,-0.016,-0.01,-0.0099,-0.0092,-0.0092,-0.0084,-0.0084,-0.0084,-0.0085,-0.0085,0,-0.0505,-0.0545,-0.059,-0.0619,-0.068,-0.0683,-0.073,-0.073,-0.0728,-0.0743,-0.0679,-0.0667,-0.0529,-0.0441,-0.0325,-0.0195,-0.0188,-0.0105,-0.0078,-0.0119,-0.0124,-0.0087,-0.0089,-0.0081,-0.0082,-0.0083,-0.0083,0,-0.053,-0.0557,-0.0621,-0.0676,-0.0699,-0.0742,-0.0793,-0.082,-0.0808,-0.0823,-0.0818,-0.0742,-0.0618,-0.0478,-0.031,-0.0226,-0.0094,-0.0054,-0.0112,-0.009,-0.003,-0.0036,0.003,0.0031,0.0031,0.0031,0.0032,0,-0.0547,-0.0581,-0.0669,-0.0717,-0.0749,-0.0809,-0.0853,-0.0864,-0.0881,-0.0864,-0.087,-0.0773,-0.0701,-0.0458,-0.0318,-0.0101,-0.0075,-0.0016,-0.0018,-0.0038,-0.0019,-0.0025,-0.0031,0.0032,0.0032,0.0032,0.0033,0,-0.058,-0.0614,-0.0669,-0.0768,-0.0834,-0.0896,-0.0947,-0.0962,-0.096,-0.0963,-0.0888,-0.077,-0.064,-0.0451,-0.0294,-0.0141,-0.0056,-0.0011,-0.0011,-0.0012,-0.0034,-0.0017,-0.0023,0.0034,0.0034,0.0034,0.0034,0,-0.0605,-0.0654,-0.0731,-0.0813,-0.0898,-0.095,-0.0974,-0.0976,-0.0983,-0.0941,-0.0918,-0.0771,-0.0688,-0.0473,-0.0326,-0.0178,-0.0137,-0.0093,-0.0087,-0.0087,-0.0151,-0.0199,-0.0159,0,0,0,0,0,-0.0625,-0.0684,-0.0769,-0.0858,-0.0938,-0.0977,-0.1025,-0.103,-0.1026,-0.097,-0.0933,-0.0799,-0.0577,-0.0489,-0.0336,-0.0328,-0.0127,-0.0149,-0.0078,0.0042,0.004,-0.0016,0,0,0,0,0,0,-0.0645,-0.0728,-0.0771,-0.0871,-0.0927,-0.1007,-0.103,-0.1026,-0.0975,-0.0949,-0.082,-0.0771,-0.0546,-0.0652,-0.0333,-0.0295,-0.0232,-0.0049,-0.0046,0.0043,0.0041,0.004,-0.0018,0,0,0,0,0]}]]